Regional Weather Roundup
Issued by NWS State College, PA

Home | Current Version | Previous Version | Text Only | Print | Product List | Glossary On
Versions: 1 2 3 4 5 6 7 8 9 10 11 12 13 14 15 16 17 18 19 20 21 22 23 24 25 26 27 28 29 30 31 32 33 34 35 36 37 38 39 40 41 42 43 44 45 46 47 48 49 50
000
ASUS41 KCTP 270410
RWRCTP

REGIONAL WEATHER ROUNDUP
NATIONAL WEATHER SERVICE STATE COLLEGE PA
1200 AM EDT THU APR 27 2017

Note: "fair" indicates few or no clouds below 12,000 feet with no
significant weather and/or obstructions to visibility.

* = STATION THAT DOES NOT REPORT PRECIPITATION /E.G. RAIN...SNOW...ETC/
    THUNDER OR FOG.

PAZ002>004-007>009-013>016-020>023-029>032-270500-
WESTERN PENNSYLVANIA

CITY           SKY/WX    TMP DP  RH WIND       PRES   REMARKS
ERIE           CLOUDY    69  55  60 S13       29.66S
MEADVILLE      PTCLDY    66  55  67 CALM      29.70S
FRANKLIN*      PTCLDY    64  52  63 SE6       29.74R
NEW CASTLE     FAIR      67  56  67 CALM      29.70S
BEAVER COUNTY  NOT AVBL
BUTLER*        CLEAR     66  54  63 SE3       29.72S
PITTSBURGH INT PTCLDY    68  57  68 S5        29.70S
PITTSBURGH     CLEAR     65  54  67 SE6       29.71S
INDIANA*       CLEAR     66  57  72 S7G14     29.77S
LATROBE        CLEAR     66  57  72 CALM      29.73S
WASHINGTON CO* CLEAR     55  54  94 CALM      29.73S
$$

PAZ004>006-010>012-017>019-024>028-033>037-041-042-045-046-049>053-270500-
CENTRAL PENNSYLVANIA

CITY           SKY/WX    TMP DP  RH WIND       PRES   REMARKS
BRADFORD       CLEAR     61  54  77 SE7       29.77S
DUBOIS         CLEAR     62  53  72 SE9       29.76S
CLEARFIELD     CLEAR     61  56  83 CALM      29.79R
JOHNSTOWN      CLEAR     62  56  80 S8        29.80R
ALTOONA        CLEAR     63  57  81 S7        29.81S
STATE COLLEGE  CLEAR     61  56  84 SW3       29.80S
WILLIAMSPORT   CLEAR     62  57  83 CALM      29.78S
SELINSGROVE    CLEAR     56  54  93 CALM      29.82R
FT INDIANTOWN  CLEAR     55  55 100 CALM      29.83S FOG
CAPITAL CITY   PTCLDY    58  54  86 CALM      29.83R
HARRISBURG     PTCLDY    56  55  97 SE6       29.83R
YORK           CLEAR     56  55  97 CALM      29.83S
$$

PAZ038>040-043-044-047-048-054-055-060>062-067>071-270500-
EASTERN PENNSYLVANIA

CITY           SKY/WX    TMP DP  RH WIND       PRES   REMARKS
SCRANTON       CLEAR     60  56  86 E3        29.82R
MOUNT POCONO   CLOUDY    54  54 100 SE6       29.86R
ALLENTOWN      CLOUDY    63  56  78 S3        29.84R
QUAKERTOWN*    CLOUDY    59  57  94 CALM      29.86R
READING        CLOUDY    62  59  90 S5        29.83R
LANCASTER      FOG       54  54 100 E6        29.84S VSB 1/4
COATESVILLE    CLOUDY    59  59 100 CALM      29.87R FOG
POTTSTOWN      CLOUDY    59  56  89 CALM      29.86R
BLUE BELL      CLOUDY    59  55  88 CALM      29.86S
DOYLESTOWN     CLOUDY    59  58  96 SE3       29.84S
WILLOW GROVE   NOT AVBL
NORTH PHILA    CLOUDY    63  57  81 CALM      29.86S
PHILADELPHIA   CLOUDY    62  56  80 S3        29.85S
$$



USA.gov is the U.S. government's official web portal to all federal, state and local government web resources and services.